ATLAS 5 CENTAUR DEB, 43982

Orbit data source: Space-Track

ATLAS 5 CENTAUR DEB, 43982 is space debris in HEO originally from a launch on Wed, 17 Sep 2014 UTC launched from the Air Force Eastern Test Range (AFETR). Debris objects in space refer to the collection of defunct objects orbiting the Earth. Examples of debris include non-operational satellites, rocket bodies, and fragments generated from explosions, collisions, or faulty payload assembly.

Loading next visibility...
ATLAS 5 CENTAUR DEB details
Identifier
43982, 2014-055AM
Orbit
HEO
Last TLE update1 day ago
Origin
Flag of USULA (US)
ManufacturerUnknown
MissionSpacecraft
Bus & MotorUnknown
MassUnknown
Launch date (UTC)
2014-09-17 (10 years ago)
Launch vehicleUnknown
Launch site
Air Force Eastern Test Range (AFETR)
Object type
Payload
Rocket body
Debris
Shape & HBRUnknown
Radar Cross SectionRCS unknown

Expand to show TLE details & history

TLE from 1 day ago
0 ATLAS 5 CENTAUR DEB
1 43982U 14055AM  24360.09277970 -.00000054  00000-0  00000+0 0  9996
2 43982  20.1563 237.9516 4634963   2.2299 359.4151  1.75479673 40345
Epoch: 2024-12-25T02:13Z
Definitive object data (Epoch: 2024-12-25T02:13:36.166Z)
Latitude-0.00003°
Longitude110.4994°
Altitude9,185.385 km
Speed6.123 km/s
True Right ascension15h 51m 57s
True Declination0° 00' 00"
Sunlit
Object was in daylight at TLE epoch
Visualization TLE readout
Latitude5.66203°
Longitude-85.26174°
Altitude34,192.591 km
Speed2.433 km/s
Apparent Right ascension02h 23m 46s
Apparent Declination0° 05' 53"
Sunlit
Object is in daylight
Visualization observer readout
Local Sidereal Time10:05:50
Azimuth286.952° WNW
Elevation-19.358°
Doppler factor1
Orbital elements
Apogee altitude36,116.683 km
Perigee altitude9,200.056 km
Semi-major axis29,036.507 km
Eccentricity0.4634963
Inclination20.1563°
RAAN237.9516°
Arg. of periapsis2.2299°
True anomaly358.19958°
Mean anomaly359.4151°
Eccentric anomaly358.90985°
Mean motion0.43866 °/min
BSTARUnknown
Orbital period820.68 mins
Loading maneuver chart data...

ATLAS 5 CENTAUR DEB Visibility forecast

Observer location: undefined°, undefined

Span
Click to sort rows by Start time (UTC) header in descending order
Start Az.
Max El. time (UTC)
Max El. Az.
Max El.
End time (UTC)
End Az.
690 mins2024-12-26 19:14:36.051Z234.638° WSW2024-12-26 20:09:36.051Z159.689° S39.749°2024-12-27 06:44:36.051Z144.924° SSE
|